Location: The Saddle
(36.8333°N, 80.3417°W)
Time: 03:49:36
(UTC-04:00)

Vanguard 3 - Pass Details

Date: 28 February 2024
Orbit: 510 x 3234 km, 33.3° (Epoch: 24 April)

Event Time Altitude Azimuth Distance (km) Brightness Sun altitude
Rises 18:37:18 0° 223° (SW) 5,936 12.4 -5.4°
Reaches altitude 10° 18:40:55 10° 219° (SW) 5,229 12.0 -6.1°
Maximum altitude 18:56:54 52° 149° (SSE) 3,677 10.3 -9.3°
Enters shadow 19:13:46 14° 82° (E) 5,695 10.8 -12.7°
